Tracking 28794 objects as of 19-Apr-2024
HD Live streaming from Space Station
objects crossing your sky now

COSMOS 2251 DEB

Track COSMOS 2251 DEB now!
10-day predictions


NORAD ID: 34386
Int'l Code: 1993-036QB
Perigee: 637.3 km
Apogee: 658.0 km
Inclination: 74.0 °
Period: 97.5 minutes
Semi major axis: 7018 km
RCS: 0.034 m2 (small)
Launch date: June 16, 1993
Source: Commonwealth of Independent States (former USSR) (CIS)
Launch site: PLESETSK MISSILE AND SPACE COMPLEX (PKMTR)

Note: This is SATELLITE DEBRIS
Your satellite tracking list
Your tracking list is empty




NASA's NSSDC Master Catalog

Two Line Element Set (TLE):
1 34386U 93036QB  24110.39797576  .00056940  00000-0  81017-2 0  9999
2 34386  74.0189  93.7065 0014726 277.1360 233.6135 14.76460022800127
Source of the keplerian elements: AFSPC